Weather in Bogorodsk

Russia / Komi Republic     62°15′24″N   52°29′17″E
temp.,
°C
wind,
m/s
gust,
m/s
humid.,
%
clouds,
%
prec.,
mm/h
press.,
hPa
HPBL,
m
28 september, tue
tue2800:000se118566 0.0 103311
03:00−1s019069 0.0 103310
06:000sw118471 0.0 103315
09:00+5w1162100 0.0 1032322
12:00+7nw2253100 0.0 1031696
15:00+7nw2467100 0.0 1031676
18:00+5nw1381100 0.1 1031109
21:00+5wnw1187100 0.1 103021
29 september, wed
wed2900:00+5wnw1294100 0.1 103077
03:00+5n149692 0.1 1030154
06:00+5n1397100 0.0 1030117
09:00+7nne238295 0.0 1031342
12:00+9nnw1270100 0.1 1031630
15:00+9nw1269100 0.1 1030644
18:00+6wnw1180100 0.0 102917
21:00+6wnw2686100 0.1 1028201
30 september, thu
thu3000:00+5wsw2696100 0.1 1027152
03:00+5wsw3896100 0.1 1026225
06:00+5wnw289833 0.0 1025259
09:00+7n478799 0.0 1025502
12:00+7nnw3787100 0.0 1027549
15:00+9nnw3677100 0.0 1027754
18:00+7nw2789100 0.0 1027313
21:00+7nnw2591100 0.0 1027167
1 october, fri
fri100:00+6nnw1289100 0.0 102782
03:00+6nnw1287100 0.0 102769
06:00+6n1286100 0.0 102774
09:00+7nne1179100 0.0 1028200
12:00+7nw1174100 0.0 1028314
15:00+7wnw1281100 0.0 1028137
18:00+6wnw118881 0.0 102815
21:00+6w1196100 0.0 102816
2 october, sat
sat200:00+5w22965 0.0 102829
03:00+3w22965 0.0 102823
06:00+3w22976 0.0 102834
09:00+7w238227 0.0 1028344
12:00+10w246719 0.0 1028833
15:00+11w24665 0.0 1027785
18:00+6wsw238928 0.0 102844
21:00+5wsw249462 0.0 102874